H1 CPF  2  SGF 2024  1  7  2  007 01 etalon1   
H2  8900103  525    19751 2024  1  6  0  0  0 2024  1 10 23 45  0   900 1 1  0 0 0 1
H9
10 0 60317  82800.00000  0 -13685238.625   7418453.499  20203411.755
10 0 60317  83700.00000  0 -16055593.004   7163565.398  18465936.505
10 0 60317  84600.00000  0 -18203488.481   7096956.683  16369339.650
10 0 60317  85500.00000  0 -20073349.307   7186608.594  13954084.879
10 0 60318      0.00000  0 -21618565.107   7391416.626  11266933.413
10 0 60318    900.00000  0 -22803296.504   7663108.489   8360049.785
10 0 60318   1800.00000  0 -23603847.161   7948483.381   5289992.750
10 0 60318   2700.00000  0 -24009541.939   8191878.122   2116610.479
10 0 60318   3600.00000  0 -24023071.523   8337755.214  -1098138.079
10 0 60318   4500.00000  0 -23660287.293   8333299.771  -4291411.394
10 0 60318   5400.00000  0 -22949453.529   8130912.862  -7400737.104
10 0 60318   6300.00000  0 -21929987.819   7690492.739 -10365260.391
10 0 60318   7200.00000  0 -20650743.812   6981402.433 -13126961.678
10 0 60318   8100.00000  0 -19167910.069   5984037.680 -15631817.024
10 0 60318   9000.00000  0 -17542615.720   4690926.487 -17830875.986
10 0 60318   9900.00000  0 -15838346.963   3107310.726 -19681233.732
10 0 60318  10800.00000  0 -14118285.785   1251184.713 -21146877.034
10 0 60318  11700.00000  0 -12442685.328   -847210.772 -22199386.955
10 0 60318  12600.00000  0 -10866394.376  -3146418.017 -22818484.625
10 0 60318  13500.00000  0  -9436635.673  -5595270.509 -22992410.309
10 0 60318  14400.00000  0  -8191131.398  -8134814.783 -22718129.859
10 0 60318  15300.00000  0  -7156653.227 -10700564.544 -22001366.405
10 0 60318  16200.00000  0  -6348055.478 -13224991.102 -20856458.900
10 0 60318  17100.00000  0  -5767829.351 -15640145.212 -19306052.532
10 0 60318  18000.00000  0  -5406192.984 -17880301.022 -17380629.291
10 0 60318  18900.00000  0  -5241709.947 -19884512.177 -15117889.819
10 0 60318  19800.00000  0  -5242407.228 -21598974.700 -12562000.273
10 0 60318  20700.00000  0  -5367341.692 -22979100.345  -9762720.148
10 0 60318  21600.00000  0  -5568547.011 -23991216.328  -6774428.869
10 0 60318  22500.00000  0  -5793278.120 -24613823.265  -3655070.408
10 0 60318  23400.00000  0  -5986456.782 -24838361.997   -465036.325
10 0 60318  24300.00000  0  -6093215.839 -24669459.992   2733991.643
10 0 60318  25200.00000  0  -6061436.450 -24124649.247   5880218.063
10 0 60318  26100.00000  0  -5844171.463 -23233569.556   8912907.913
10 0 60318  27000.00000  0  -5401855.133 -22036691.329  11773537.276
10 0 60318  27900.00000  0  -4704208.313 -20583611.279  14406900.332
10 0 60318  28800.00000  0  -3731759.007 -18930991.851  16762153.247
10 0 60318  29700.00000  0  -2476915.752 -17140228.777  18793776.809
10 0 60318  30600.00000  0   -944549.042 -15274942.019  20462441.116
10 0 60318  31500.00000  0    847945.684 -13398392.645  21735757.137
10 0 60318  32400.00000  0   2871107.498 -11570930.714  22588901.738
10 0 60318  33300.00000  0   5084375.363  -9847578.384  23005104.653
10 0 60318  34200.00000  0   7437523.374  -8275847.260  22975987.826
10 0 60318  35100.00000  0   9872509.442  -6893879.721  22501749.744
10 0 60318  36000.00000  0  12325664.212  -5728991.701  21591189.679
10 0 60318  36900.00000  0  14730133.075  -4796677.941  20261569.244
10 0 60318  37800.00000  0  17018472.127  -4100122.499  18538311.394
10 0 60318  38700.00000  0  19125291.873  -3630237.225  16454539.871
10 0 60318  39600.00000  0  20989839.481  -3366227.947  14050465.217
10 0 60318  40500.00000  0  22558411.340  -3276666.792  11372626.705
10 0 60318  41400.00000  0  23786493.645  -3321027.837   8473002.803
10 0 60318  42300.00000  0  24640539.343  -3451621.302   5408006.126
10 0 60318  43200.00000  0  25099304.086  -3615845.217   2237381.887
10 0 60318  44100.00000  0  25154682.144  -3758659.200   -976968.357
10 0 60318  45000.00000  0  24812004.610  -3825172.538  -4172213.462
10 0 60318  45900.00000  0  24089785.232  -3763234.867  -7285844.035
10 0 60318  46800.00000  0  23018923.265  -3525917.003 -10256921.428
10 0 60318  47700.00000  0  21641396.951  -3073771.903 -13027297.110
10 0 60318  48600.00000  0  20008503.406  -2376777.142 -15542775.730
10 0 60318  49500.00000  0  18178720.715  -1415874.044 -17754196.581
10 0 60318  50400.00000  0  16215284.783   -184034.745 -19618410.166
10 0 60318  51300.00000  0  14183585.413   1313188.762 -21099129.320
10 0 60318  52200.00000  0  12148493.635   3057657.164 -22167637.623
10 0 60318  53100.00000  0  10171734.709   5019178.912 -22803341.301
10 0 60318  54000.00000  0   8309418.238   7156563.873 -22994154.715
10 0 60318  54900.00000  0   6609829.479   9419149.772 -22736713.346
10 0 60318  55800.00000  0   5111573.494  11748736.366 -22036412.041
10 0 60318  56700.00000  0   3842148.022  14081844.398 -20907269.970
10 0 60318  57600.00000  0   2817002.529  16352203.615 -19371627.214
10 0 60318  58500.00000  0   2039118.895  18493365.447 -17459681.136
10 0 60318  59400.00000  0   1499127.610  20441330.953 -15208873.588
10 0 60318  60300.00000  0   1175951.303  22137085.053 -12663142.570
10 0 60318  61200.00000  0   1037944.048  23528932.721  -9872054.216
10 0 60318  62100.00000  0   1044475.820  24574541.523  -6889832.862
10 0 60318  63000.00000  0   1147893.792  25242607.651  -3774308.386
10 0 60318  63900.00000  0   1295775.316  25514078.551   -585801.193
10 0 60318  64800.00000  0   1433377.662  25382883.692   2614034.056
10 0 60318  65700.00000  0   1506182.341  24856145.246   5763384.600
10 0 60318  66600.00000  0   1462426.456  23953861.811   8801454.157
10 0 60318  67500.00000  0   1255516.594  22708079.532  11669614.881
10 0 60318  68400.00000  0    846225.813  21161585.550  14312516.374
10 0 60318  69300.00000  0    204581.517  19366177.930  16679132.299
10 0 60318  70200.00000  0   -688633.369  17380582.923  18723726.401
10 0 60318  71100.00000  0  -1840828.148  15268104.452  20406721.173
10 0 60318  72000.00000  0  -3247046.681  13094101.390  21695453.931
10 0 60318  72900.00000  0  -4889928.404  10923395.000  22564806.808
10 0 60318  73800.00000  0  -6740191.799   8817711.981  22997699.080
10 0 60318  74700.00000  0  -8757623.934   6833267.208  22985432.173
10 0 60318  75600.00000  0 -10892537.908   5018585.080  22527879.903
10 0 60318  76500.00000  0 -13087641.252   3412649.507  21633518.762
10 0 60318  77400.00000  0 -15280241.467   2043459.166  20319295.591
10 0 60318  78300.00000  0 -17404699.668    927048.987  18610332.653
10 0 60318  79200.00000  0 -19395032.458     67020.553  16539473.013
10 0 60318  80100.00000  0 -21187554.912   -545397.899  14146672.216
10 0 60318  81000.00000  0 -22723454.287   -930762.268  11478245.510
10 0 60318  81900.00000  0 -23951185.944  -1120316.541   8585983.067
10 0 60318  82800.00000  0 -24828589.076  -1154435.848   5526149.056
10 0 60318  83700.00000  0 -25324630.802  -1080673.321   2358383.422
10 0 60318  84600.00000  0 -25420702.310   -951492.969   -855471.908
10 0 60318  85500.00000  0 -25111409.393   -821787.093  -4052598.314
10 0 60319      0.00000  0 -24404821.466   -746285.062  -7170451.373
10 0 60319    900.00000  0 -23322166.629   -776965.549 -10148010.458
10 0 60319   1800.00000  0 -21896984.594   -960586.717 -12926999.753
10 0 60319   2700.00000  0 -20173773.219  -1336441.797 -15453053.957
10 0 60319   3600.00000  0 -18206186.705  -1934437.954 -17676803.302
10 0 60319   4500.00000  0 -16054863.078  -2773583.665 -19554854.494
10 0 60319   5400.00000  0 -13784974.630  -3860949.810 -21050646.927
10 0 60319   6300.00000  0 -11463606.750  -5191149.097 -22135166.760
10 0 60319   7200.00000  0  -9157077.247  -6746356.813 -22787504.948
10 0 60319   8100.00000  0  -6928310.173  -8496870.742 -22995249.148
10 0 60319   9000.00000  0  -4834375.081 -10402185.330 -22754703.300
10 0 60319   9900.00000  0  -2924294.197 -12412533.862 -22070932.482
10 0 60319  10800.00000  0  -1237207.923 -14470831.786 -20957634.355
10 0 60319  11700.00000  0    199026.525 -16514938.286 -19436841.998
10 0 60319  12600.00000  0   1368748.495 -18480140.416 -17538466.161
10 0 60319  13500.00000  0   2268884.616 -20301755.097 -15299687.886
10 0 60319  14400.00000  0   2908803.979 -21917740.423 -12764215.021
10 0 60319  15300.00000  0   3309648.691 -23271207.809  -9981418.428
10 0 60319  16200.00000  0   3503171.131 -24312731.415  -7005365.560
10 0 60319  17100.00000  0   3530129.039 -25002360.383  -3893770.559
10 0 60319  18000.00000  0   3438309.192 -25311251.885   -706881.203
10 0 60319  18900.00000  0   3280263.500 -25222859.170   2493676.222
10 0 60319  19800.00000  0   3110852.426 -24733627.293   5646072.758
10 0 60319  20700.00000  0   2984699.955 -23853169.121   8689451.837
10 0 60319  21600.00000  0   2953665.444 -22603915.655  11565082.519
10 0 60319  22500.00000  0   3064436.642 -21020255.862  14217470.525
10 0 60319  23400.00000  0   3356344.813 -19147201.479  16595407.573
10 0 60319  24300.00000  0   3859491.677 -17038631.456  18652940.778
10 0 60319  25200.00000  0   4593265.542 -14755187.400  20350245.296
10 0 60319  26100.00000  0   5565309.786 -12361905.097  21654384.895
10 0 60319  27000.00000  0   6770986.970  -9925677.930  22539946.925
10 0 60319  27900.00000  0   8193362.509  -7512654.968  22989540.015
10 0 60319  28800.00000  0   9803711.812  -5185679.024  22994144.765
10 0 60319  29700.00000  0  11562532.401  -3001869.049  22553309.916
10 0 60319  30600.00000  0  13421022.417  -1010446.162  21675188.712
10 0 60319  31500.00000  0  15322967.775    749107.358  20376412.703
10 0 60319  32400.00000  0  17206962.325   2248479.199  18681802.904
10 0 60319  33300.00000  0  19008871.217   3471487.240  16623921.091
10 0 60319  34200.00000  0  20664436.337   4414527.994  14242467.134
10 0 60319  35100.00000  0  22111915.455   5086492.497  11583531.452
10 0 60319  36000.00000  0  23294644.307   5508150.744   8698714.974
10 0 60319  36900.00000  0  24163412.327   5711030.089   5644132.281
99